Flag Weather past 2 weeks in Durham, North Carolina, U.S.A.

Now
63 °F

Passing clouds.


Feels Like: 63 °F
Forecast: 48 / 65 °F
Wind: 6 mph from Northeast

Location: Raleigh-Durham International Airport

Current Time: Oct 30, 2014 at 12:25:23 PM

Latest Report: Oct 30, 2014 at 11:51 AM


Visibility: 10 mi

Pressure: 30.06 "Hg

Humidity: 52%

Dew point: 45 °F

Location of DurhamLocation

Historic Weather in Durham — Graph

°F

Durham temperature yesterday

Maximum temperature yesterday: 78 °F (at 3:51 PM)
Minimum temperature yesterday: 57 °F (at 11:51 PM)
Average temperature yesterday: 66 °F

Past Weeks' High & Low Weather Summary

 TemperatureHumidityPressure
High84 °F (Oct 28, 3:51 PM)93% (Oct 16, 3:51 AM)30.16 "Hg (Oct 16, 3:51 AM)
Low39 °F (Oct 25, 7:51 AM)24% (Oct 26, 3:51 PM)29.75 "Hg (Oct 18, 3:51 AM)
Average59 °F67%29.96 "Hg
* Reported Oct 15 10:51 AM — Oct 30 10:51 AM, Durham, Weather by CustomWeather, © 2014

Note: Actual official high and low records may vary slightly from our data, if they occured in-between our weather recording intervals... More about our weather records

Advertising

Durham weather history for previous 24 hours

 ConditionsComfort  
Time TempWeatherWind HumidityBarometerVisibility
10:51 AM
Oct 30
61 °FPassing clouds.5 mph65%30.06 "Hg10 mi
9:51 AM57 °FSunny.3 mph74%30.06 "Hg10 mi
8:51 AM53 °FPassing clouds.No wind83%30.05 "Hg10 mi
7:51 AM48 °FPassing clouds.No wind93%30.04 "Hg10 mi
6:51 AM49 °FPassing clouds.No wind90%30.03 "Hg10 mi
5:51 AM50 °FPassing clouds.3 mph83%30.01 "Hg10 mi
4:51 AM53 °FPassing clouds.6 mph77%30.00 "Hg10 mi
3:51 AM53 °FPassing clouds.3 mph83%29.99 "Hg10 mi
2:51 AM54 °FPartly cloudy.3 mph77%30.00 "Hg10 mi
1:51 AM55 °FPassing clouds.5 mph74%30.01 "Hg10 mi
12:51 AM56 °FPassing clouds.6 mph72%29.99 "Hg10 mi
11:51 PM
Oct 29
57 °FPassing clouds.3 mph78%30.01 "Hg10 mi
10:51 PM58 °FMostly cloudy.6 mph84%30.02 "Hg10 mi
9:51 PM60 °FMostly cloudy.5 mph75%29.98 "Hg10 mi
8:51 PM61 °FLight rain. Mostly cloudy.3 mph78%29.97 "Hg8 mi
7:51 PM62 °FPartly cloudy.8 mph83%29.97 "Hg10 mi
6:51 PM63 °FBroken clouds.7 mph87%29.95 "Hg9 mi
5:51 PM65 °FRain. Fog.5 mph85%29.94 "Hg3 mi
4:51 PM75 °FPartly sunny.8 mph52%29.90 "Hg10 mi
3:51 PM78 °FBroken clouds.9 mph48%29.90 "Hg10 mi
2:51 PM77 °FScattered clouds.14 mph50%29.92 "Hg10 mi
1:51 PM76 °FBroken clouds.7 mph54%29.94 "Hg10 mi
12:51 PM72 °FBroken clouds.9 mph59%29.97 "Hg10 mi
Weather by CustomWeather, © 2014

See weather overviewHow to use our weather pages